Miscellaneous Local Product
Issued by NWS North Platte, NE

Home | Current Version | Previous Version | Text Only | Print | Product List | Glossary On
Versions: 1 2 3 4 5 6 7 8 9 10 11 12 13 14 15 16 17 18 19 20 21 22 23 24 25 26 27 28 29 30 31 32 33 34 35 36 37 38 39 40 41 42 43 44 45 46 47 48 49 50
055
AXUS43 KLBF 290810
MISLBF


WESTERN AND NORTH CENTRAL NEBRASKA HOURLY WEATHER ROUNDUP
NATIONAL WEATHER SERVICE NORTH PLATTE NE
300 AM CDT THU SEP 29 2016

NOTE: "FAIR" INDICATES FEW OR NO CLOUDS BELOW 12,000 FEET WITH NO
SIGNIFICANT WEATHER AND/OR OBSTRUCTIONS TO VISIBILITY.

NOTE: STATIONS NOT REPORTING VARIABLES SUCH AS SKY/WEATHER OR
PRESSURE ARE PROVIDED BY RAWS AND APRS NETWORKS AND ARE NOT UNDER
NATIONAL WEATHER SERVICE QUALITY CONTROL.

...OBSERVATIONS IN AND NEAR THE EASTERN PANHANDLE OF NEBRASKA...

CITY           SKY/WX    TMP DP  RH WIND       PRES   REMARKS
PINE RIDGE     CLEAR     58  31  35 VRB5      30.35S
CHADRON        CLEAR     56  36  47 S10       30.34S
ALLIANCE       CLEAR     43  37  79 SE5       30.37R
SIDNEY         CLEAR     48  37  65 S8        30.38F
CRESCENT LAKE    N/A     47  38  70 SE5         N/A
$$

...OBSERVATIONS IN NORTHERN NEBRASKA AND FAR SOUTHERN SOUTH DAKOTA...

CITY           SKY/WX    TMP DP  RH WIND       PRES   REMARKS
WINNER         FAIR      46  42  86 S6        30.38S
VALENTINE      CLOUDY    41  38  89 CALM      30.38S
THEDFORD       CLOUDY    40  38  95 CALM      30.40R
AINSWORTH      CLOUDY    40  40  97 S3        30.38S
O`NEILL        CLEAR     44  42  95 CALM      30.40S
ORD            CLOUDY    38  34  85 CALM      30.38S
BROKEN BOW     CLOUDY    40  38  93 CALM      30.39R
VALENTINE NWR    N/A     41  40  96 CALM        N/A
BUTTE            N/A     46  43  88 CALM        N/A
HALSEY           N/A     46  41  83 CALM        N/A
EWING            N/A     43  41  93 CALM        N/A
$$

...OBSERVATIONS IN SOUTHWEST NEBRASKA AND FAR NORTHEAST COLORADO...

CITY           SKY/WX    TMP DP  RH WIND       PRES   REMARKS
WRAY           FAIR      50  36  57 CALM      30.38S
HOLYOKE        FAIR      43  37  81 CALM      30.38F
IMPERIAL       CLOUDY    45  35  68 CALM      30.39R
OGALLALA       CLEAR     43  36  77 CALM      30.39S
NORTH PLATTE   CLOUDY    40  37  89 E3        30.39R
MCCOOK         CLOUDY    45  38  76 NE5       30.38R
LEXINGTON      CLOUDY    41  38  87 CALM      30.39R
STAPLETON        N/A     41  38  89 CALM        N/A
GOTHENBURG       N/A     46  39  77 CALM        N/A
CALLAWAY         N/A     42  39  89 SE3         N/A
$$

...OBSERVATIONS IN CENTRAL LINCOLN COUNTY AREA...

CITY           SKY/WX    TMP DP  RH WIND       PRES   REMARKS
N.P. AIRPORT   CLOUDY    40  37  89 E3        30.39R
N.P. DOWNTOWN    N/A     46  41  82 CALM        N/A
N.P. SOUTHEAST   N/A     44  39  84 CALM        N/A
N.P. HILLCREST   N/A     46  40  80 SE3         N/A
$$

...SOME OBSERVATIONS FROM AROUND THE REGION...

CITY           SKY/WX    TMP DP  RH WIND       PRES   REMARKS
DENVER         PTCLDY    54  32  43 S14       30.37R
LARAMIE        CLOUDY    51  35  54 S18       30.42F
CHEYENNE       CLOUDY    49  35  58 SW7       30.41F
SCOTTSBLUFF    CLEAR     51  41  68 E9        30.36S
RAPID CITY     CLEAR     44  35  70 SE6       30.33F
BISMARCK       CLEAR     44  42  93 SE5       30.38F
PIERRE         CLEAR     41  38  89 CALM      30.36S
SIOUX FALLS    CLOUDY    43  41  93 NE3       30.41R
OMAHA          CLEAR     47  43  86 N5        30.36R
GRAND ISLAND   CLOUDY    42  40  92 NW3       30.39R
KANSAS CITY    PTCLDY    49  45  86 N6        30.29R
WICHITA        PTCLDY    54  47  77 NE7       30.31R
OKLAHOMA CITY  PTCLDY    59  47  64 NE13      30.25S
DALLAS         PTCLDY    70  49  47 N15       30.14R
AMARILLO       CLEAR     56  48  74 SE10      30.34R
DODGE CITY     CLOUDY    47  41  80 E3        30.35R
HAYS           CLOUDY    48  36  61 NE6       30.36R
GOODLAND       CLEAR     49  38  65 S9        30.37S
$$




USA.gov is the U.S. government's official web portal to all federal, state and local government web resources and services.